Location: Unspecified
(67.4364°N, 0.0000°E)
Time: 04:09:33
(UTC+00:00)

NOAA 16 DEB - Visible Passes

Search period start: 04 April 2026 00:00
Search period end: 14 April 2026 00:00
Orbit: 811 x 866 km, 98.7° (Epoch: 28 March)

Date Brightness Start Highest point End Pass type
(mag) Time Alt. Az. Time Alt. Az. Time Alt. Az.
4 Apr ? 21:04:30 10° W 21:07:04 13° WNW 21:09:37 10° NW visible
5 Apr ? 20:47:58 10° WSW 20:51:11 16° WNW 20:54:24 10° NW visible
6 Apr ? 20:31:35 10° SW 20:35:20 19° W 20:39:03 10° NW visible
7 Apr ? 20:15:21 10° SW 20:19:29 22° W 20:23:36 10° NNW visible
10 Apr ? 21:12:08 10° W 21:14:13 12° WNW 21:16:17 10° NW visible
11 Apr ? 20:55:23 10° WSW 20:58:16 15° WNW 21:01:10 10° NW visible
12 Apr ? 20:38:53 10° WSW 20:42:21 17° WNW 20:45:50 10° NW visible
